Regional Weather Roundup
Issued by NWS

Home | Current Version | Previous Version | Text Only | Print | Product List | Glossary Off
Versions: 1 2 3 4 5 6 7 8 9 10 11 12 13 14 15 16 17 18 19 20 21 22 23 24 25 26 27 28

000
ASUS45 KSLC 191710
RWRUT

UTAH REGIONAL WEATHER ROUNDUP
NATIONAL WEATHER SERVICE SALT LAKE CITY UT
1100 AM MDT SAT AUG 19 2017

UTZ001>011-023>025-191800-

NORTHERN UTAH

CITY           SKY/WX    TMP DP  RH WIND       PRES   REMARKS
BRIGHAM CITY   SUNNY     79  34  19 CALM      30.10S
HILL AFB       SUNNY     77  36  22 E10       30.13R
LOGAN          SUNNY     72  38  29 VRB3      30.11F
OGDEN          SUNNY     80  36  20 SE6       30.10R
SALT LAKE CITY MOSUNNY   83  42  23 CALM      30.08S
TOOELE VALLEY  SUNNY     81  43  26 N5        30.09S
WENDOVER       MOSUNNY   81  35  19 E6        30.09R
HEBER CITY     SUNNY     68  32  26 CALM      30.20F
WEST JORDAN    SUNNY     82  52  35 S14       30.12S

$$

UTZ011>015-024>027-191800-

CENTRAL/NORTHEAST UTAH

CITY           SKY/WX    TMP DP  RH WIND       PRES   REMARKS
PROVO AIRPORT  SUNNY     77  42  28 VRB3      30.13F
MOAB/CANYONLAN MOSUNNY   87  31  13 E6        30.10R
DELTA          MOSUNNY   79  34  19 S5        30.13S
PRICE          MOSUNNY   80  34  19 VRB5      30.21S
ROOSEVELT      SUNNY     79  37  22 E3        30.19F
VERNAL         SUNNY     79  40  24 VRB5      30.18S

$$

UTZ013>016-019>022-027-191800-

SOUTHERN UTAH

CITY           SKY/WX    TMP DP  RH WIND       PRES   REMARKS
BRYCE CANYON   MOSUNNY   77  37  23 CALM      30.34F
CEDAR CITY     SUNNY     80  47  31 NW5       30.18S
MILFORD        SUNNY     84  36  18 S15       30.13S
ST GEORGE      SUNNY     85  43  22 CALM      30.03S
HANKSVILLE     SUNNY     86  34  15 SE6       30.11F
BLANDING       SUNNY     79  33  18 SE8       30.29F

$$

REGIONAL REPORTS     COLORADO/ARIZONA

CITY           SKY/WX    TMP DP  RH WIND       PRES   REMARKS
CRAIG, CO      SUNNY     77  35  21 CALM      30.24F
GRAND JUNCTION SUNNY     80  37  21 SE7       30.15S
RIFLE, CO      MOSUNNY   73  35  25 CALM      30.20F
MONTROSE, CO   SUNNY     76  45  33 NW12      30.22S
CORTEZ, CO     SUNNY     83  34  17 W5        30.22F
COLORADO CITY    N/A     86  41  20 N5        30.20R
PAGE, AZ       SUNNY     86  38  18 E5        30.10S
GRAND CANYON   MOSUNNY   77  34  21 SW8       30.32S
KINGMAN, AZ    SUNNY     90  43  19 SW9       30.07S
FLAGSTAFF, AZ  SUNNY     75  39  27 W9        30.34S

$$

REGIONAL REPORTS    NEVADA/IDAHO/WYOMING

CITY           SKY/WX    TMP DP  RH WIND       PRES   REMARKS
LAS VEGAS, NV  SUNNY     93  40  15 E6        29.96S
ELY, NY        MOSUNNY   79  34  19 S8        30.22F
ELKO, NV       SUNNY     75  27  17 VRB3      30.14F
POCATELLO, ID  SUNNY     78  30  17 W14       30.12R
BURLEY, ID     SUNNY     71  41  33 W6        30.09S
FORT BRIDGER,    N/A     79  22  12 W7G18     30.30S
EVANSTON, WY   SUNNY     76  27  16 SW10      30.28S
ROCK SPRINGS,  SUNNY     74  29  19 NW7       30.26S
KEMMERER, WY     N/A     72  23  16 W10G16    30.29F

$$




USA.gov is the U.S. government's official web portal to all federal, state and local government web resources and services.